Location: Savignano sul Rubicone
(44.0950°N, 12.4090°E)
Time: 17:23:47
(UTC+01:00)

N. Korean satellite - Pass Details

Date: 01 November 2019
Orbit: 456 x 506 km, 97.2° (Epoch: 12 November)

Event Time Altitude Azimuth Distance (km) Brightness Sun altitude
Rises 17:33:23 0° 180° (S) 2,479 10.4 -6.4°
Reaches altitude 10° 17:35:27 10° 186° (S) 1,616 9.5 -6.8°
Maximum altitude 17:38:48 46° 261° (W) 647 7.8 -7.4°
Drops below altitude 10° 17:42:14 10° 336° (NNW) 1,655 9.4 -8.0°
Sets 17:44:22 0° 343° (NNW) 2,549 10.3 -8.3°
